Location: Usti nad Labem
(50.6670°N, 14.0330°E)
Time: 22:17:21
(UTC+01:00)

Envisat - Pass Details

Date: 10 December 2020
Orbit: 764 x 766 km, 98.1° (Epoch: 15 January)

Event Time Altitude Azimuth Distance (km) Brightness Sun altitude
Rises 05:42:00 0° 17° (NNE) 3,246 6.3 -19.8°
Reaches altitude 10° 05:44:23 10° 22° (NNE) 2,314 5.6 -19.5°
Maximum altitude 05:49:22 53° 100° (E) 940 3.8 -18.7°
Drops below altitude 10° 05:54:19 10° 177° (S) 2,296 5.7 -17.9°
Sets 05:56:40 0° 182° (S) 3,217 6.4 -17.6°
